Main page
METAR-TAF:

METAR-TAF

Airports :

Hohenfels, Germany

latitude: 49-13N, longitude: 011-50E, elevation: 442 m

Current weather observation

The report was made 38 minutes ago, at 10:56 UTC
Calm wind
Temperature -5°C
Humidity 100%
Pressure 1012 hPa
Visibility 10 km or more
Overcast at a height of 700 ft

METAR: ETIH 221056Z AUTO 00000KT 9999 OVC007 M05/M05 A2988 RMK AO2 SLP159 T10491050 $

Time: 12:34 (11:34 UTC)


TAF: missing

Weather observations and forecasts of more than 4000 airports (METAR and TAF reports).

The available stations are represented by yellow and red dots on the map.

Hover mouse over dot to see the name of the station.

Then click to see weather observations and forecasts.

To change the map : click on the green buttons with a black cross to zoom in, on the green button with a dash to zoom out, or on the green arrows for adjacent maps.


METAR-TAF: